Huntsville, AL

11:39 AM CDT on April 26, 2018 (GMT -0500)
Huntsville International

Weather History for KHSV - March, 2014

Change the Weather History Date:

Tuesday, March 18, 2014

  Actual Average Record
Temperature  
Mean Temperature 46 °F 54 °F  
Max Temperature 52 °F 66 °F 87 °F (1908)
Min Temperature 39 °F 43 °F 22 °F (1967)
Degree Days  
Heating Degree Days 19 11  
Month to date heating degree days 287 243  
Since 1 July heating degree days 3122 2695  
Cooling Degree Days 0 0  
Month to date cooling degree days 0 0  
Year to date cooling degree days 1 1  
Moisture  
Dew Point 41 °F    
Average Humidity 82    
Maximum Humidity 93    
Minimum Humidity 71    
Precipitation  
Precipitation 0.00 in 0.17 in 1.90 in (1897)
Month to date precipitation 1.98 2.99  
Year to date precipitation 11.85 12.72  
Snow  
Snow 0.00 in - - ()
Month to date snowfall T  
Since 1 July snowfall 5.2  
Snow Depth 0.00 in    
Sea Level Pressure  
Sea Level Pressure 29.91 in    
Wind  
Wind Speed 8 mph (SE)    
Max Wind Speed 21 mph    
Max Gust Speed 30 mph    
Visibility 6 miles    
Events      
T = Trace of Precipitation, MM = Missing Value Source: NWS Daily Summary

Daily Weather History Graph

Daily Weather History Graph

Search for Another Location

Airport or City:

Astronomy

Mar. 18, 2014 Rise Set
Actual Time 6:53 AM CDT 6:57 PM CDT
Civil Twilight 6:28 AM CDT 7:22 PM CDT
Nautical Twilight 5:59 AM CDT 7:51 PM CDT
Astronomical Twilight 5:29 AM CDT 8:21 PM CDT
Moon 9:07 PM CDT (3/18) 7:48 AM CDT (3/18)
Length of Visible Light 12h 53m
Length of Day
12h 03m
Waning Gibbous, 96% of the Moon is Illuminated
Mar 18
Waning Gibbous
Mar 23
Last Quarter
Mar 30
New
Apr 7
First Quarter
Apr 15
Full

Hourly Weather History & Observations

Time (CDT) Temp. Windchill Dew Point Humidity Pressure Visibility Wind Dir Wind Speed Gust Speed Precip Events Conditions
12:07 AM 39.2 °F - 37.4 °F 93% 29.86 in 1.8 mi Calm Calm - 0.00 in   Overcast
12:14 AM 39.2 °F - 37.4 °F 93% 29.86 in 2.0 mi Calm Calm - 0.00 in   Overcast
12:53 AM 39.0 °F - 37.0 °F 93% 29.86 in 3.0 mi Calm Calm - 0.00 in   Overcast
1:02 AM 39.2 °F - 37.4 °F 93% 29.86 in 2.0 mi Calm Calm - N/A   Overcast
1:23 AM 39.2 °F - 37.4 °F 93% 29.85 in 3.0 mi Calm Calm - N/A   Overcast
1:53 AM 39.9 °F 37.8 °F 37.9 °F 93% 29.84 in 4.0 mi ENE 3.5 mph - N/A   Overcast
2:53 AM 39.9 °F 37.8 °F 37.9 °F 93% 29.83 in 5.0 mi NNE 3.5 mph - N/A   Overcast
3:53 AM 39.9 °F 35.8 °F 37.9 °F 93% 29.80 in 5.0 mi ENE 5.8 mph - N/A   Overcast
4:53 AM 41.0 °F - 37.9 °F 89% 29.83 in 5.0 mi Calm Calm - N/A   Overcast
5:53 AM 41.0 °F - 39.0 °F 93% 29.85 in 2.5 mi Calm Calm - N/A   Overcast
6:53 AM 41.0 °F 37.1 °F 39.9 °F 96% 29.86 in 2.0 mi SE 5.8 mph - N/A   Overcast
7:40 AM 42.8 °F - 39.2 °F 87% 29.87 in 2.0 mi Calm Calm - N/A   Overcast
7:53 AM 43.0 °F - 39.9 °F 89% 29.89 in 2.0 mi Calm Calm - N/A   Overcast
8:03 AM 42.8 °F - 39.2 °F 87% 29.89 in 3.0 mi Calm Calm - N/A   Overcast
8:53 AM 44.1 °F 42.5 °F 41.0 °F 89% 29.94 in 3.0 mi WSW 3.5 mph - N/A   Overcast
9:53 AM 45.0 °F - 42.1 °F 90% 29.97 in 7.0 mi Calm Calm - N/A   Overcast
10:53 AM 46.9 °F - 42.1 °F 83% 29.99 in 9.0 mi SSE 9.2 mph - N/A   Overcast
11:53 AM 48.9 °F - 42.1 °F 77% 30.00 in 10.0 mi SE 6.9 mph - N/A   Overcast
12:53 PM 50.0 °F - 43.0 °F 77% 29.99 in 10.0 mi SSE 5.8 mph - N/A   Overcast
1:53 PM 51.1 °F - 43.0 °F 74% 29.96 in 10.0 mi East 10.4 mph - N/A   Overcast
2:53 PM 51.1 °F - 43.0 °F 74% 29.94 in 10.0 mi ESE 11.5 mph - N/A   Overcast
3:53 PM 51.1 °F - 43.0 °F 74% 29.93 in 10.0 mi ESE 11.5 mph - N/A   Overcast
4:53 PM 52.0 °F - 43.0 °F 71% 29.91 in 10.0 mi SE 9.2 mph - N/A   Overcast
5:53 PM 52.0 °F - 43.0 °F 71% 29.89 in 10.0 mi SSE 19.6 mph 24.2 mph N/A   Overcast
6:53 PM 51.1 °F - 43.0 °F 74% 29.91 in 10.0 mi South 11.5 mph - N/A   Overcast
7:53 PM 51.1 °F - 44.1 °F 77% 29.93 in 10.0 mi South 11.5 mph - N/A   Overcast
8:53 PM 51.1 °F - 44.1 °F 77% 29.96 in 10.0 mi South 8.1 mph - N/A   Overcast
9:53 PM 51.1 °F - 44.1 °F 77% 29.99 in 10.0 mi SSE 10.4 mph - N/A   Overcast
10:45 PM 50.0 °F - 44.6 °F 82% 29.97 in 10.0 mi SSE 13.8 mph - N/A   Scattered Clouds
10:53 PM 50.0 °F - 44.1 °F 80% 29.97 in 10.0 mi SSE 13.8 mph - N/A   Scattered Clouds
11:53 PM 48.9 °F - 44.1 °F 83% 30.00 in 10.0 mi SSE 10.4 mph - N/A   Scattered Clouds